Location: Frydek-Mistek
(49.6830°N, 18.3330°E)
Time: 03:13:39
(UTC+01:00)

ISS - Pass Details

Date: 03 October 2020
Orbit: 417 x 420 km, 51.6° (Epoch: 25 October)

Event Time Altitude Azimuth Distance (km) Brightness Sun altitude
Rises 19:31:43 0° 288° (WNW) 2,370 1.9 -12.4°
Reaches altitude 10° 19:33:51 10° 284° (WNW) 1,504 0.6 -12.7°
Maximum altitude 19:37:08 51° 208° (SSW) 539 -3.1 -13.2°
Enters shadow 19:39:14 20° 138° (SE) 1,048 -2.2 -13.6°
